Regional Weather Roundup
Issued by NWS

Home | Current Version | Previous Version | Text Only | Print | Product List | Glossary On
Versions: 1 2 3 4 5 6 7 8 9 10 11 12 13 14 15 16 17 18 19 20 21 22 23 24 25 26 27 28 29 30 31 32 33 34 35 36 37 38 39 40 41 42 43 44 45 46 47
000
ASUS42 KFFC 251703
RWRGA
WEATHER ROUNDUP FOR GEORGIA
NATIONAL WEATHER SERVICE PEACHTREE CITY GA
1200 PM EST THU DEC 25 2014

NOTE: "FAIR" INDICATES FEW OR NO CLOUDS BELOW 12,000 FEET WITH NO
SIGNIFICANT WEATHER AND/OR OBSTRUCTIONS TO VISIBILITY.

* = USE WITH CAUTION. THE STATIONS MARKED WITH AN ASTERISK MAY NOT
REPORT WEATHER SUCH AS PRECIPITATION, FOG, OR THUNDER AND ARE NOT
QUALITY CONTROLLED BY NWS.

THE REMARK "TC" DENOTES TEMPERATURE READING IN DEGREES CELSIUS.

GAZ001>058-251800-
NORTH GEORGIA

CITY           SKY/WX    TMP DP  RH WIND       PRES   REMARKS
ATLANTA        MOSUNNY   47  35  63 NW9       30.22S
ATHENS         SUNNY     51  33  50 W9        30.17F
CHAMBLEE       SUNNY     48  34  58 W8        30.21S
PEACHTREE CITY MOSUNNY   47  34  60 NW12      30.24S
ROME           PTSUNNY   47  34  60 VRB3      30.24F
WEST ATLANTA   MOSUNNY   46  34  62 NW13      30.22F
GAINESVILLE    SUNNY     47  31  53 W9        30.19R
CARTERSVILLE   MOSUNNY   47  32  56 NW7       30.24S


CITY           SKY/WX    TMP DP  RH WIND       PRES   REMARKS
DALTON*        MOSUNNY   46  34  61 W3        30.23F
MARIETTA       SUNNY     47  35  63 NW10      30.21S
KENNESAW*      MOSUNNY   46  30  53 NW7       30.24R
$$

GAZ059>098-102>109-251800-
CENTRAL GEORGIA

CITY           SKY/WX    TMP DP  RH WIND       PRES   REMARKS
AUGUSTA-BUSH   SUNNY     54  35  48 NW12G17   30.18R
AUGUSTA-DANIEL SUNNY     53  35  50 NW12      30.18S
COLUMBUS       SUNNY     50  34  54 W8        30.25F
MACON          SUNNY     51  34  52 NW7       30.23S
ROBINS AFB     SUNNY     53  35  51 N10       30.23R


CITY           SKY/WX    TMP DP  RH WIND       PRES   REMARKS
LAGRANGE*      SUNNY     51  39  64 W8        30.25S
SYLVANIA*      SUNNY     54  40  60 NW8       30.19S
MILLEDGEVILLE* SUNNY     52  39  62 NW6       30.21F
$$

GAZ099>101-110>166-251800-
SOUTH GEORGIA

CITY           SKY/WX    TMP DP  RH WIND       PRES   REMARKS
SAVANNAH       PTSUNNY   54  39  57 W8        30.18F
VALDOSTA       MOSUNNY   54  39  57 CALM      30.24F
ALMA           MOSUNNY   55  36  48 NW12      30.22S
ST SIMONS      CLOUDY    53  41  63 W9G17     30.20F
FT STEWART     MOSUNNY   54  36  51 NW12G20   30.18F
ALBANY         SUNNY     54  34  46 NW9       30.27F
HUNTER AFB     PTSUNNY   52  39  62 W13       30.17R
MOODY AFB      SUNNY     54  41  60 VRB5      30.23F
BRUNSWICK      CLOUDY    54  41  62 W9        30.21F


CITY           SKY/WX    TMP DP  RH WIND       PRES   REMARKS
BAINBRIDGE*    SUNNY     55  39  54 N6        30.27F
MOULTRIE*      SUNNY     52  39  62 N8        30.24F
VIDALIA*       SUNNY     54  37  54 NW10      30.21F
WAYCROSS*      MOSUNNY   57  44  60 NW7       30.23S
DOUGLAS*       SUNNY     55  37  50 NW5       30.24F
$$



USA.gov is the U.S. government's official web portal to all federal, state and local government web resources and services.